Location: Ravensburg
(47.7866°N, 9.6124°E)
Time: 10:29:47
(UTC+02:00)

AO-73 - Pass Details

Date: 16 March 2026
Orbit: 514 x 567 km, 97.8° (Epoch: 18 April)

Event Time Altitude Azimuth Distance (km) Brightness Sun altitude
Rises 04:57:17 0° 4° (N) 2,673 ? -16.7°
Reaches altitude 10° 04:59:34 10° 354° (N) 1,771 ? -16.4°
Maximum altitude 05:02:55 30° 292° (WNW) 956 ? -15.8°
Enters shadow 05:03:21 29° 279° (W) 974 ? -15.7°
